[[{"header":{"parameterUnit":"m.s-1","parameterCategory":2,"la1":30.2991,"la2":30.254,"lo1":-89.0895,"lo2":-89.0444,"dy":0.0017,"dx":0.0017,"nx":28,"ny":28,"refTime":"2024-07-03T09:00:00:Z","depth":"0","parameterNumber":2,"parameterNumberName":"U-component_of_CURRENTS"},"data":[0,0,0,0,0,0,0,0,0,0,0,0,0,0,0,0,0,0,0,0,0,0,0,0,0,0,0,0,0,0,0,0,0,0,0,0,0,0,0,0,0,0,0,0,0,0,0,0,0,0,0,0,0,0,0,0,0,0,-0.4419,-0.4419,0,-0.4366,-0.4364,-0.4363,-0.4282,-0.4281,-0.428,-0.4279,-0.4281,-0.4282,-0.4283,0,0,0,0,0,0,0,0,0,0,0,0,0,-0.4365,-0.4367,-0.4419,-0.4419,-0.4419,-0.4366,-0.4364,-0.4363,-0.4282,-0.4281,-0.428,-0.4279,-0.4281,-0.4282,-0.4283,0,0,0,0,0,0,0,0,0,0,0,0,0,-0.4352,-0.4367,-0.4419,-0.4377,-0.4373,-0.4366,-0.4364,-0.4363,-0.4282,-0.4281,-0.428,-0.4278,-0.428,-0.4282,-0.4283,-0.4316,0,0,-0.4287,-0.4287,0,0,0,0,0,0,0,0,-0.4353,-0.4353,-0.4383,-0.438,-0.4376,-0.4335,-0.4346,-0.4352,-0.4283,-0.431,-0.4279,-0.4278,-0.431,-0.4308,-0.4291,-0.4316,-0.4316,-0.4287,-0.4288,-0.4288,-0.4289,0,0,0,0,0,0,0,-0.4354,-0.4355,-0.4391,-0.4383,-0.4379,-0.4332,-0.4328,-0.4346,-0.4313,-0.4307,-0.4303,-0.4308,-0.4307,-0.429,-0.4291,-0.4316,-0.4287,-0.4288,-0.4289,-0.4289,-0.4212,-0.4209,0,0,0,0,0,0,-0.438,-0.4357,-0.4393,-0.439,-0.4368,-0.4335,-0.433,-0.4344,-0.4312,-0.4307,-0.4309,-0.4304,-0.4288,-0.4289,-0.4291,-0.4213,-0.4288,-0.4289,-0.429,-0.4215,-0.4211,-0.4208,0,0,0,0,0,0,-0.4379,-0.4384,-0.4395,-0.4376,-0.4375,-0.4338,-0.4353,-0.4344,-0.4329,-0.4314,-0.4308,-0.4305,-0.4287,-0.4289,-0.4273,-0.4217,-0.429,-0.4291,-0.4218,-0.4214,-0.421,-0.4132,0,0,0,0,0,0,-0.4378,-0.4385,-0.4399,-0.4379,-0.4378,-0.4409,-0.4355,-0.4344,-0.4338,-0.4331,-0.431,-0.4308,-0.4286,-0.427,-0.4274,-0.422,-0.4292,-0.4221,-0.4216,-0.4211,-0.4138,-0.4126,-0.4115,0,0,0,0,0,-0.4377,-0.4423,-0.44,-0.4405,-0.4401,-0.4411,-0.4406,-0.4369,-0.4339,-0.4347,-0.4296,-0.4308,-0.4237,-0.4271,-0.4275,-0.422,-0.4224,-0.4218,-0.4211,-0.4144,-0.4128,-0.4116,0,0,0,0,0,0,-0.4412,-0.4419,-0.4394,-0.4439,-0.4428,-0.44,-0.4409,-0.4381,-0.4347,-0.4334,-0.4301,-0.4296,-0.4265,-0.4256,-0.4292,-0.4176,-0.4223,-0.4217,-0.4169,-0.4156,-0.4144,-0.4084,-0.4293,0,0,0,0,0,-0.4427,-0.4458,-0.4446,-0.4479,-0.4477,-0.4439,-0.4437,-0.4414,-0.4386,-0.4369,-0.4336,-0.4287,-0.4242,-0.4212,-0.4202,-0.4154,-0.4117,-0.411,-0.4098,-0.4088,-0.4038,-0.3928,-0.3901,-0.4187,-0.4187,-0.4188,0,0,-0.445,-0.4458,-0.4475,-0.4488,-0.4469,-0.4442,-0.4433,-0.4443,-0.4387,-0.438,-0.43,-0.4284,-0.4232,-0.4162,-0.4142,-0.4142,-0.3996,-0.408,-0.4073,-0.4026,-0.3918,-0.389,-0.3865,-0.4183,-0.4184,-0.4185,0,0,-0.4483,-0.4516,-0.4523,-0.4518,-0.4508,-0.448,-0.4486,-0.4452,-0.4405,-0.4365,-0.4302,-0.4224,-0.4209,-0.4089,-0.4042,-0.3961,-0.3968,-0.3981,-0.3839,-0.3735,-0.371,-0.3687,-0.3642,-0.3616,-0.3938,-0.3938,-0.3937,0,-0.4503,-0.4467,-0.4529,-0.4515,-0.4468,-0.449,-0.443,-0.4416,-0.4368,-0.4284,-0.4341,-0.4161,-0.4145,-0.3944,-0.3899,-0.3929,-0.3904,-0.3903,-0.3718,-0.3695,-0.3673,-0.3632,-0.3604,-0.3933,-0.3934,-0.3934,-0.3934,0,-0.4501,-0.4455,-0.4465,-0.4422,-0.4426,-0.4383,-0.4367,-0.4331,-0.4295,-0.4233,-0.4092,-0.4044,-0.3903,-0.3891,-0.3876,-0.3672,-0.3722,-0.3751,-0.3755,-0.3639,-0.3605,-0.3577,-0.3927,-0.3928,-0.393,-0.3931,0,0,-0.4511,-0.4455,-0.4442,-0.4325,-0.4334,-0.4298,-0.4259,-0.4135,-0.4032,-0.401,-0.3843,-0.3732,-0.3695,-0.3632,-0.3587,-0.3475,-0.3328,-0.3535,-0.3532,-0.3493,-0.3137,-0.3093,-0.306,-0.3339,-0.3332,-0.3327,-0.319,0,-0.4417,-0.428,-0.433,-0.4164,-0.403,-0.4067,-0.4009,-0.3946,-0.3904,-0.3792,-0.3698,-0.3581,-0.3601,-0.3528,-0.3415,-0.3381,-0.3245,-0.3364,-0.3251,-0.3247,-0.3221,-0.302,-0.2923,-0.2783,-0.3163,-0.3159,-0.3155,0,-0.429,-0.4197,-0.4,-0.385,-0.3819,-0.3782,-0.3622,-0.3592,-0.3513,-0.3495,-0.3378,-0.3373,-0.3193,-0.327,-0.3066,-0.3157,-0.3103,-0.308,-0.3075,-0.3023,-0.3145,-0.295,-0.2719,-0.2716,-0.3113,-0.3116,-0.312,0,-0.402,-0.3915,-0.37,-0.3659,-0.3579,-0.3506,-0.3486,-0.3437,-0.3405,-0.3293,-0.3278,-0.3111,-0.3051,-0.2952,-0.2938,-0.2991,-0.2775,-0.2848,-0.2731,-0.2733,-0.2612,-0.2611,-0.2349,-0.263,-0.2631,-0.2631,-0.2632,0,-0.3735,-0.3569,-0.3546,-0.3412,-0.325,-0.3277,-0.3153,-0.3134,-0.3133,-0.3062,-0.3085,-0.3007,-0.2972,-0.2895,-0.2865,-0.2715,-0.2701,-0.2633,-0.2643,-0.2589,-0.2588,-0.2555,-0.2614,-0.2626,-0.2627,-0.2628,-0.2629,0,-0.3391,-0.3356,-0.3152,-0.3087,-0.3087,-0.2972,-0.3052,-0.2966,-0.2997,-0.2924,-0.2898,-0.2908,-0.2798,-0.2775,-0.2638,-0.2605,-0.2438,-0.2426,-0.24,-0.2404,-0.2292,-0.2352,-0.2095,-0.2036,-0.2247,-0.2244,-0.2242,0,-0.3176,-0.3012,-0.2966,-0.2929,-0.2899,-0.2826,-0.2801,-0.2863,-0.2822,-0.2842,-0.2765,-0.2708,-0.2604,-0.2453,-0.2385,-0.2266,-0.2294,-0.2108,-0.2132,-0.218,-0.2257,-0.2325,-0.2301,-0.1976,-0.1972,-0.1968,-0.1965,0,-0.2836,-0.285,-0.2755,-0.2646,-0.2597,-0.2567,-0.2533,-0.2488,-0.2529,-0.2481,-0.2386,-0.233,-0.2301,-0.216,-0.2082,-0.2007,-0.2073,-0.2029,-0.2039,-0.1938,-0.2025,-0.2014,-0.225,-0.1934,-0.1937,-0.1939,-0.1941,-0.1942,-0.2675,-0.2554,-0.2451,-0.234,-0.2307,-0.2165,-0.2049,-0.2034,-0.1892,-0.1712,-0.1908,-0.1726,-0.1975,-0.1852,-0.1802,-0.173,-0.1807,-0.1678,-0.173,-0.1783,-0.1733,-0.1918,-0.1648,-0.1649,-0.1651,-0.1652,-0.1653,0,-0.2326,-0.2225,-0.2153,-0.1951,-0.1795,-0.1881,-0.1759,-0.1603,-0.1312,-0.1228,-0.1124,-0.1189,-0.1255,-0.1451,-0.1551,-0.1475,-0.1464,-0.1444,-0.1504,-0.1478,-0.1573,-0.1569,-0.1314,-0.1314,-0.1314,-0.1314,-0.1314,-0.1314,-0.211,-0.1855,-0.1786,-0.1421,-0.135,-0.1062,-0.0935,-0.0781,-0.0662,-0.0369,-0.0271,-0.0324,-0.0837,-0.1372,-0.1466,-0.1395,-0.1388,-0.1331,-0.1376,-0.1473,-0.1501,-0.1527,-0.153,-0.1271,-0.1272,-0.1219,-0.1219,-0.1219]},{"header":{"parameterUnit":"m.s-1","parameterCategory":2,"la1":30.2991,"la2":30.254,"lo1":-89.0895,"lo2":-89.0444,"dy":0.0017,"dx":0.0017,"nx":28,"ny":28,"refTime":"2024-07-03T09:00:00:Z","depth":"0","parameterNumber":3,"parameterNumberName":"V-component_of_CURRENTS"},"data":[0,0,0,0,0,0,0,0,0,0,0,0,0,0,0,0,0,0,0,0,0,0,0,0,0,0,0,0,0,0,0,0,0,0,0,0,0,0,0,0,0,0,0,0,0,0,0,0,0,0,0,0,0,0,0,0,0,0,-0.0583,-0.0582,0,-0.0427,-0.0425,-0.0423,-0.0316,-0.0316,-0.0315,-0.0315,0.0006,0.0014,0.0022,0,0,0,0,0,0,0,0,0,0,0,0,0,-0.0573,-0.0575,-0.0583,-0.0582,-0.058,-0.0428,-0.0425,-0.0423,-0.0316,-0.0316,-0.0315,-0.0315,0.0004,0.0013,0.0023,0,0,0,0,0,0,0,0,0,0,0,0,0,-0.0511,-0.0576,-0.0584,-0.0511,-0.0503,-0.0428,-0.0425,-0.0422,-0.0316,-0.0316,-0.0315,-0.0314,0.0001,0.0012,0.0024,0.0084,0,0,0.0061,0.0067,0,0,0,0,0,0,0,0,-0.0515,-0.0511,-0.0523,-0.0516,-0.0507,-0.0393,-0.0304,-0.0246,-0.0317,-0.0384,-0.0315,-0.0314,-0.0114,-0.0093,-0.0063,0.0099,0.0113,0.0062,0.007,0.0075,0.0078,0,0,0,0,0,0,0,-0.052,-0.0516,-0.0518,-0.0522,-0.0512,-0.0412,-0.0404,-0.0292,-0.025,-0.0378,-0.0371,-0.0359,-0.0108,-0.0075,-0.0054,0.0118,0.0062,0.0073,0.008,0.0085,0.0323,0.0322,0,0,0,0,0,0,-0.0558,-0.0522,-0.0523,-0.0514,-0.0513,-0.0414,-0.0405,-0.0428,-0.0254,-0.0229,-0.0359,-0.0354,-0.0096,-0.0069,-0.0042,0.0099,0.0075,0.0086,0.0093,0.0324,0.0323,0.0321,0,0,0,0,0,0,-0.0559,-0.0561,-0.053,-0.0514,-0.0503,-0.0417,-0.0442,-0.0425,-0.0399,-0.0243,-0.0214,-0.0352,-0.0095,-0.0059,0.0021,0.011,0.0092,0.0103,0.0325,0.0323,0.0322,0.0343,0,0,0,0,0,0,-0.056,-0.0563,-0.0586,-0.0518,-0.0506,-0.0501,-0.0443,-0.0423,-0.0393,-0.0385,-0.0226,-0.0195,-0.0091,0.0001,0.0033,0.0126,0.0112,0.0326,0.0324,0.0322,0.0344,0.0343,0.0342,0,0,0,0,0,-0.0561,-0.0616,-0.0589,-0.0588,-0.0544,-0.0503,-0.0487,-0.0418,-0.0395,-0.039,-0.0304,-0.0201,0.0013,0.0009,0.0047,0.0147,0.0327,0.0325,0.0323,0.0344,0.0343,0.0342,0,0,0,0,0,0,-0.0641,-0.0608,-0.0577,-0.0624,-0.0569,-0.0486,-0.048,-0.0434,-0.0363,-0.0355,-0.0216,-0.0179,-0.0082,-0.0005,-0.0012,0.0194,0.019,0.0195,0.0194,0.0194,0.0193,0.023,0.0122,0,0,0,0,0,-0.0667,-0.0688,-0.0631,-0.0663,-0.0646,-0.0563,-0.0537,-0.0492,-0.0423,-0.0391,-0.0282,-0.0171,-0.0061,0.0029,0.0109,0.0238,0.0272,0.0317,0.0316,0.0316,0.0361,0.0478,0.0495,0.0314,0.0314,0.0314,0,0,-0.0709,-0.069,-0.0704,-0.0677,-0.063,-0.0584,-0.0546,-0.0523,-0.0461,-0.0364,-0.0266,-0.019,-0.005,0.0077,0.0136,0.0169,0.0354,0.0313,0.0313,0.036,0.0478,0.0497,0.0514,0.0313,0.0313,0.0313,0,0,-0.0775,-0.0785,-0.0802,-0.0755,-0.0694,-0.0629,-0.0631,-0.0552,-0.05,-0.0425,-0.0326,-0.02,-0.0066,0.0106,0.0199,0.024,0.0307,0.0246,0.0346,0.0457,0.0476,0.0492,0.044,0.0453,0.0295,0.0295,0.0295,0,-0.0818,-0.0816,-0.0798,-0.0774,-0.0713,-0.0653,-0.0608,-0.0553,-0.0453,-0.0366,-0.041,-0.0138,-0.0027,0.0233,0.0247,0.0261,0.0253,0.0354,0.0464,0.0482,0.05,0.0444,0.0457,0.0296,0.0296,0.0296,0.0296,0,-0.0866,-0.0839,-0.0847,-0.0774,-0.0721,-0.0685,-0.059,-0.0526,-0.0471,-0.0374,-0.0199,-0.0073,0.0115,0.0173,0.0236,0.0453,0.0372,0.0414,0.0484,0.0521,0.0455,0.0469,0.0297,0.0297,0.0297,0.0297,0,0,-0.0997,-0.0894,-0.0885,-0.0821,-0.0703,-0.067,-0.0553,-0.0395,-0.0315,-0.0205,-0.007,0.0162,0.0229,0.0335,0.0448,0.0588,0.0664,0.056,0.0565,0.0533,0.0778,0.0773,0.0786,0.0723,0.0728,0.0733,0.0641,0,-0.1007,-0.0947,-0.0878,-0.0781,-0.0724,-0.0596,-0.0498,-0.0353,-0.0254,-0.0137,0.0074,0.0186,0.029,0.0349,0.0527,0.0605,0.0719,0.0677,0.0726,0.0726,0.0746,0.0814,0.0877,0.0811,0.0654,0.0657,0.0659,0,-0.104,-0.098,-0.0892,-0.0735,-0.0704,-0.0647,-0.0448,-0.036,-0.0148,-0.0081,0.0132,0.0216,0.0465,0.0475,0.0738,0.0687,0.0751,0.0811,0.0809,0.0837,0.0756,0.0771,0.0843,0.1012,0.068,0.0679,0.0677,0,-0.109,-0.0974,-0.0891,-0.0841,-0.0682,-0.061,-0.0524,-0.0327,-0.0245,-0.0063,-0.0028,0.0265,0.0322,0.0531,0.0673,0.0686,0.0865,0.0892,0.0953,0.0943,0.1035,0.1028,0.1328,0.1094,0.1094,0.1095,0.1095,0,-0.1086,-0.1023,-0.0928,-0.0884,-0.0804,-0.0683,-0.0581,-0.046,-0.0309,-0.0171,-0.0027,0.0094,0.0339,0.0475,0.0639,0.0819,0.0845,0.0992,0.0979,0.1022,0.1016,0.1197,0.1246,0.1091,0.1092,0.1093,0.1093,0,-0.1113,-0.1049,-0.097,-0.0848,-0.0824,-0.0777,-0.0656,-0.0538,-0.0467,-0.0304,-0.0263,-0.0074,0.0108,0.0311,0.0565,0.0721,0.1016,0.0973,0.092,0.091,0.1157,0.12,0.1428,0.1541,0.1025,0.1026,0.1026,0,-0.1088,-0.1053,-0.0986,-0.092,-0.0864,-0.0797,-0.0687,-0.0605,-0.0474,-0.0347,-0.0236,-0.0129,0.01,0.0354,0.0616,0.0847,0.1018,0.1011,0.1144,0.1225,0.1263,0.1282,0.1363,0.1182,0.1184,0.1185,0.1186,0,-0.1001,-0.101,-0.0932,-0.0846,-0.0758,-0.0693,-0.0566,-0.0531,-0.0369,-0.0271,-0.0052,0.008,0.0275,0.058,0.0751,0.0915,0.1153,0.1043,0.1218,0.1518,0.1477,0.1556,0.1049,0.1197,0.1196,0.1195,0.1194,0.1194,-0.0883,-0.0839,-0.0736,-0.0656,-0.0589,-0.0498,-0.0415,-0.0282,-0.0143,0.0064,0.0178,0.0419,0.0679,0.0958,0.1094,0.1308,0.1275,0.1456,0.1506,0.1519,0.1684,0.1129,0.1232,0.1231,0.1231,0.123,0.1229,0,-0.0589,-0.0557,-0.0495,-0.0383,-0.0292,-0.0326,-0.0202,-0.0088,0.0116,0.0253,0.0501,0.0944,0.1205,0.1365,0.1614,0.1791,0.1857,0.1863,0.1968,0.2039,0.1642,0.1714,0.1821,0.1821,0.1821,0.1821,0.1821,0.182,-0.038,-0.023,-0.0247,-0.0066,-0.0029,0.0127,0.0196,0.03,0.0403,0.0699,0.0935,0.116,0.1449,0.1934,0.2202,0.2223,0.2425,0.236,0.2462,0.224,0.2207,0.2177,0.2266,0.2488,0.2489,0.2892,0.2896,0.2899]}],[{"header":{"parameterUnit":"m.s-1","parameterCategory":2,"la1":30.2991,"la2":30.254,"lo1":-89.0895,"lo2":-89.0444,"dy":0.0017,"dx":0.0017,"nx":28,"ny":28,"refTime":"2024-07-03T09:00:00:Z","depth":"2","parameterNumber":2,"parameterNumberName":"U-component_of_CURRENTS"},"data":[0,0,0,0,0,0,0,0,0,0,0,0,0,0,0,0,0,0,0,0,0,0,0,0,0,0,0,0,0,0,0,0,0,0,0,0,0,0,0,0,0,0,0,0,0,0,0,0,0,0,0,0,0,0,0,0,0,0,-0.2753,-0.2753,0,-0.2826,-0.2827,-0.2828,-0.2916,-0.2917,-0.2919,-0.292,-0.3108,-0.3112,-0.3115,0,0,0,0,0,0,0,0,0,0,0,0,0,-0.2558,-0.2562,-0.2753,-0.2753,-0.2754,-0.2826,-0.2827,-0.2828,-0.2916,-0.2917,-0.2919,-0.292,-0.3106,-0.3111,-0.3116,0,0,0,0,0,0,0,0,0,0,0,0,0,-0.264,-0.2564,-0.2753,-0.2805,-0.281,-0.2825,-0.2827,-0.2828,-0.2916,-0.2917,-0.2919,-0.2921,-0.3105,-0.3111,-0.3116,-0.3117,0,0,-0.3134,-0.3137,0,0,0,0,0,0,0,0,-0.2636,-0.2648,-0.2797,-0.2802,-0.2807,-0.2862,-0.2827,-0.293,-0.2915,-0.2878,-0.292,-0.2922,-0.3034,-0.3045,-0.3056,-0.3126,-0.3134,-0.3135,-0.3138,-0.3141,-0.3142,0,0,0,0,0,0,0,-0.263,-0.2644,-0.2784,-0.2797,-0.2804,-0.278,-0.2795,-0.2846,-0.2949,-0.2881,-0.2887,-0.2892,-0.3038,-0.305,-0.3062,-0.3136,-0.3135,-0.314,-0.3143,-0.3146,-0.3306,-0.3307,0,0,0,0,0,0,-0.2623,-0.264,-0.2781,-0.2786,-0.2722,-0.2782,-0.2799,-0.2844,-0.2946,-0.2961,-0.289,-0.2895,-0.304,-0.3055,-0.3069,-0.317,-0.3141,-0.3146,-0.315,-0.3306,-0.3306,-0.3307,0,0,0,0,0,0,-0.2619,-0.2636,-0.2778,-0.2709,-0.2726,-0.2785,-0.2834,-0.2845,-0.289,-0.2951,-0.297,-0.2927,-0.3042,-0.3061,-0.3167,-0.3175,-0.3149,-0.3154,-0.3305,-0.3306,-0.3307,-0.3313,0,0,0,0,0,0,-0.2614,-0.2635,-0.2661,-0.2711,-0.273,-0.2816,-0.2832,-0.2845,-0.2887,-0.2896,-0.2988,-0.3005,-0.3044,-0.3158,-0.3172,-0.3183,-0.3159,-0.3304,-0.3305,-0.3307,-0.3312,-0.3314,-0.3316,0,0,0,0,0,-0.2607,-0.262,-0.2663,-0.2679,-0.2767,-0.2816,-0.2825,-0.2871,-0.2887,-0.2916,-0.2993,-0.3004,-0.3175,-0.3165,-0.3181,-0.3193,-0.3303,-0.3305,-0.3306,-0.3311,-0.3314,-0.3316,0,0,0,0,0,0,-0.2557,-0.2632,-0.268,-0.2722,-0.2785,-0.2832,-0.2846,-0.2881,-0.2958,-0.2969,-0.3037,-0.3061,-0.3163,-0.3172,-0.3158,-0.324,-0.3231,-0.3236,-0.3228,-0.3232,-0.3234,-0.3149,-0.3164,0,0,0,0,0,-0.2558,-0.2567,-0.2671,-0.269,-0.2741,-0.2802,-0.2824,-0.2861,-0.2928,-0.2963,-0.3036,-0.31,-0.3172,-0.3201,-0.3275,-0.3315,-0.3256,-0.3325,-0.3327,-0.3329,-0.327,-0.3195,-0.3183,-0.3313,-0.3313,-0.3313,0,0,-0.2547,-0.257,-0.2589,-0.2675,-0.2728,-0.2802,-0.2822,-0.2863,-0.2903,-0.297,-0.306,-0.3136,-0.3196,-0.3267,-0.3304,-0.3277,-0.3271,-0.3331,-0.3332,-0.3271,-0.3195,-0.3181,-0.3169,-0.3314,-0.3314,-0.3314,0,0,-0.2519,-0.2565,-0.2601,-0.266,-0.2734,-0.2771,-0.2797,-0.289,-0.2924,-0.303,-0.3077,-0.3148,-0.3278,-0.3289,-0.3318,-0.3363,-0.3312,-0.3392,-0.3306,-0.3236,-0.3222,-0.321,-0.3149,-0.313,-0.336,-0.336,-0.336,0,-0.2498,-0.256,-0.2614,-0.2677,-0.2694,-0.2773,-0.2826,-0.2882,-0.2986,-0.2979,-0.3072,-0.3189,-0.3278,-0.3273,-0.3309,-0.3365,-0.3307,-0.3298,-0.3233,-0.3219,-0.3206,-0.3146,-0.3125,-0.336,-0.336,-0.336,-0.336,0,-0.2543,-0.2589,-0.2605,-0.2705,-0.2744,-0.2772,-0.2871,-0.2902,-0.2964,-0.3009,-0.3064,-0.3177,-0.3218,-0.3271,-0.3327,-0.3259,-0.3247,-0.3271,-0.3215,-0.3192,-0.3132,-0.3111,-0.3361,-0.3361,-0.3361,-0.3361,0,0,-0.2466,-0.2609,-0.2605,-0.2644,-0.2738,-0.2763,-0.2807,-0.2839,-0.2837,-0.2956,-0.2933,-0.3081,-0.3107,-0.3134,-0.3183,-0.3123,-0.3053,-0.3147,-0.3143,-0.3064,-0.2876,-0.2819,-0.279,-0.3052,-0.3048,-0.3044,-0.2881,0,-0.247,-0.2544,-0.2608,-0.2657,-0.2713,-0.275,-0.278,-0.2806,-0.2855,-0.2871,-0.2907,-0.2969,-0.3063,-0.3091,-0.3047,-0.3082,-0.2989,-0.3092,-0.2925,-0.2919,-0.2852,-0.2761,-0.2605,-0.2439,-0.286,-0.2856,-0.2854,0,-0.249,-0.2512,-0.2566,-0.2602,-0.2632,-0.2668,-0.2632,-0.2678,-0.2693,-0.2735,-0.2738,-0.2808,-0.2787,-0.2876,-0.281,-0.2867,-0.2843,-0.2841,-0.2835,-0.2742,-0.2819,-0.2526,-0.2384,-0.2817,-0.282,-0.2823,-0.2825,0,-0.236,-0.2458,-0.2456,-0.2486,-0.2581,-0.2558,-0.2583,-0.2609,-0.2623,-0.262,-0.2645,-0.2629,-0.2666,-0.2608,-0.2682,-0.2723,-0.2579,-0.2646,-0.2532,-0.253,-0.2337,-0.2324,-0.2493,-0.2493,-0.2494,-0.2494,-0.2495,0,-0.2288,-0.2289,-0.2403,-0.2407,-0.2387,-0.2477,-0.245,-0.2471,-0.2504,-0.251,-0.2566,-0.2562,-0.2599,-0.257,-0.2579,-0.2496,-0.2497,-0.2455,-0.2453,-0.2344,-0.2334,-0.2618,-0.2635,-0.2488,-0.2489,-0.2491,-0.2492,0,-0.2152,-0.2232,-0.2251,-0.2325,-0.2341,-0.2324,-0.239,-0.2384,-0.2439,-0.2434,-0.2434,-0.2493,-0.2458,-0.2464,-0.2397,-0.2385,-0.2304,-0.2253,-0.2134,-0.2119,-0.2319,-0.2339,-0.2077,-0.2073,-0.2069,-0.2066,-0.2064,0,-0.2086,-0.2093,-0.217,-0.2168,-0.2198,-0.221,-0.2221,-0.2314,-0.2327,-0.2394,-0.2376,-0.2364,-0.233,-0.2218,-0.2161,-0.2058,-0.2166,-0.1854,-0.1895,-0.2235,-0.2261,-0.2287,-0.231,-0.1661,-0.1656,-0.1651,-0.1648,0,-0.1945,-0.1987,-0.1995,-0.2011,-0.2026,-0.2051,-0.2084,-0.2098,-0.2204,-0.2223,-0.2228,-0.2199,-0.2119,-0.1953,-0.1841,-0.1777,-0.1869,-0.1758,-0.2076,-0.1815,-0.1835,-0.1866,-0.1903,-0.1607,-0.1611,-0.1614,-0.1616,-0.1618,-0.1816,-0.1797,-0.1825,-0.1823,-0.1849,-0.1862,-0.1824,-0.1896,-0.191,-0.1916,-0.2019,-0.1927,-0.1892,-0.1635,-0.1534,-0.1454,-0.1586,-0.1521,-0.1537,-0.1557,-0.1562,-0.1577,-0.1301,-0.1304,-0.1305,-0.1307,-0.1309,0,-0.1644,-0.1645,-0.1634,-0.1628,-0.1594,-0.1675,-0.1699,-0.1648,-0.1615,-0.1672,-0.1666,-0.1499,-0.1375,-0.1339,-0.1152,-0.1112,-0.1128,-0.1064,-0.1093,-0.1131,-0.1166,-0.1155,-0.0784,-0.0783,-0.0781,-0.078,0,0,-0.1542,-0.1482,-0.1493,-0.1374,-0.1368,-0.1279,-0.1262,-0.1238,-0.1235,-0.1188,-0.1165,-0.1291,-0.1289,-0.1052,-0.0982,-0.0846,-0.098,-0.0798,-0.1214,-0.1284,-0.1318,-0.1418,-0.1441,0,0,0,0,0]},{"header":{"parameterUnit":"m.s-1","parameterCategory":2,"la1":30.2991,"la2":30.254,"lo1":-89.0895,"lo2":-89.0444,"dy":0.0017,"dx":0.0017,"nx":28,"ny":28,"refTime":"2024-07-03T09:00:00:Z","depth":"2","parameterNumber":3,"parameterNumberName":"V-component_of_CURRENTS"},"data":[0,0,0,0,0,0,0,0,0,0,0,0,0,0,0,0,0,0,0,0,0,0,0,0,0,0,0,0,0,0,0,0,0,0,0,0,0,0,0,0,0,0,0,0,0,0,0,0,0,0,0,0,0,0,0,0,0,0,-0.0454,-0.0453,0,-0.0346,-0.0345,-0.0344,-0.0218,-0.0216,-0.0214,-0.0213,0.0117,0.0123,0.013,0,0,0,0,0,0,0,0,0,0,0,0,0,-0.0578,-0.0577,-0.0454,-0.0453,-0.0451,-0.0346,-0.0345,-0.0344,-0.0219,-0.0216,-0.0214,-0.0212,0.0114,0.0123,0.0131,0,0,0,0,0,0,0,0,0,0,0,0,0,-0.0504,-0.0576,-0.0455,-0.0376,-0.0368,-0.0347,-0.0345,-0.0343,-0.0219,-0.0216,-0.0213,-0.0211,0.0112,0.0122,0.0132,0.0138,0,0,0.0164,0.0168,0,0,0,0,0,0,0,0,-0.0508,-0.0499,-0.0389,-0.0381,-0.0372,-0.0292,-0.0268,-0.0171,-0.022,-0.0276,-0.0212,-0.0209,-0.0001,0.0018,0.0028,0.0153,0.0167,0.0165,0.0171,0.0176,0.0179,0,0,0,0,0,0,0,-0.0513,-0.0503,-0.0412,-0.0388,-0.0377,-0.0355,-0.0341,-0.025,-0.0153,-0.0271,-0.0262,-0.025,0.0005,0.0018,0.0038,0.0172,0.0165,0.0174,0.018,0.0184,0.0456,0.0457,0,0,0,0,0,0,-0.0527,-0.0508,-0.0415,-0.0409,-0.0433,-0.0355,-0.0339,-0.0321,-0.0158,-0.0132,-0.0252,-0.0244,-0.0002,0.0025,0.005,0.0205,0.0176,0.0185,0.0191,0.0455,0.0456,0.0458,0,0,0,0,0,0,-0.053,-0.052,-0.042,-0.0456,-0.0441,-0.0356,-0.0337,-0.0321,-0.028,-0.0146,-0.0115,-0.0224,0.0002,0.0035,0.0176,0.0214,0.019,0.0199,0.0454,0.0456,0.0457,0.0428,0,0,0,0,0,0,-0.0534,-0.0521,-0.0524,-0.0457,-0.044,-0.0399,-0.0339,-0.0321,-0.0278,-0.0266,-0.0113,-0.0081,0.0007,0.016,0.0187,0.0228,0.0208,0.0453,0.0455,0.0457,0.0428,0.0428,0.0429,0,0,0,0,0,-0.0539,-0.0548,-0.0525,-0.0514,-0.0442,-0.0399,-0.0389,-0.0319,-0.028,-0.027,-0.0141,-0.0084,0.019,0.017,0.0201,0.0246,0.0452,0.0454,0.0456,0.0427,0.0428,0.0429,0,0,0,0,0,0,-0.0598,-0.0534,-0.0507,-0.0495,-0.0449,-0.0377,-0.0367,-0.032,-0.0221,-0.0194,-0.0061,-0.0021,0.013,0.0174,0.0149,0.0326,0.0326,0.0334,0.0293,0.0295,0.0295,0.0242,0.0216,0,0,0,0,0,-0.0618,-0.0612,-0.0541,-0.0537,-0.0511,-0.0441,-0.0417,-0.0368,-0.0273,-0.0229,-0.0117,0.0009,0.0151,0.0212,0.0334,0.0414,0.0425,0.0458,0.0458,0.0458,0.0434,0.0481,0.0482,0.0465,0.0465,0.0465,0,0,-0.064,-0.0609,-0.0603,-0.0551,-0.0508,-0.0476,-0.0418,-0.038,-0.0342,-0.0206,-0.0106,0.0034,0.0181,0.0304,0.0368,0.0349,0.047,0.0461,0.0461,0.0436,0.0483,0.0484,0.0486,0.0466,0.0466,0.0466,0,0,-0.0683,-0.065,-0.0652,-0.0616,-0.0559,-0.0511,-0.0497,-0.0411,-0.0358,-0.0255,-0.0119,0.0039,0.0196,0.0327,0.0412,0.0476,0.0493,0.0502,0.0443,0.0489,0.049,0.0491,0.0501,0.0503,0.0474,0.0474,0.0474,0,-0.0711,-0.0696,-0.0649,-0.0635,-0.0603,-0.0524,-0.0502,-0.0449,-0.0327,-0.0275,-0.0225,0.006,0.0214,0.0377,0.0422,0.0483,0.0474,0.0434,0.0487,0.0489,0.049,0.05,0.0503,0.0473,0.0473,0.0473,0.0473,0,-0.074,-0.0726,-0.0722,-0.0674,-0.0641,-0.0613,-0.0526,-0.048,-0.0397,-0.0323,-0.0152,0.0043,0.0205,0.0289,0.0393,0.0489,0.0469,0.0504,0.0478,0.049,0.05,0.0503,0.0471,0.0472,0.0472,0.0472,0,0,-0.0797,-0.075,-0.0748,-0.0725,-0.0653,-0.0621,-0.0571,-0.0486,-0.0435,-0.0313,-0.0236,0.0037,0.0126,0.0225,0.0367,0.0415,0.0474,0.0443,0.0446,0.0436,0.052,0.0551,0.0558,0.0493,0.0493,0.0494,0.052,0,-0.0824,-0.0815,-0.078,-0.0751,-0.0723,-0.0649,-0.0604,-0.0522,-0.0428,-0.034,-0.0168,-0.0016,0.0099,0.0201,0.0269,0.045,0.0479,0.046,0.0522,0.0524,0.0539,0.0564,0.0532,0.0556,0.0523,0.0523,0.0524,0,-0.0856,-0.084,-0.0828,-0.0767,-0.0746,-0.0722,-0.0631,-0.0579,-0.0456,-0.0381,-0.0258,-0.0127,0.0036,0.011,0.0312,0.0276,0.0384,0.048,0.0484,0.0519,0.0562,0.0543,0.0563,0.053,0.0529,0.0529,0.0528,0,-0.0905,-0.0868,-0.0861,-0.0839,-0.0764,-0.0745,-0.0696,-0.059,-0.0535,-0.0416,-0.0357,-0.0194,-0.007,0.0048,0.0284,0.0283,0.0453,0.0488,0.0594,0.0595,0.0587,0.0587,0.058,0.058,0.058,0.058,0.058,0,-0.0937,-0.0926,-0.0885,-0.0874,-0.0854,-0.0784,-0.0742,-0.0676,-0.058,-0.0512,-0.038,-0.0289,-0.0084,0.0056,0.0217,0.0416,0.0403,0.0577,0.0611,0.0577,0.0576,0.057,0.0568,0.0581,0.058,0.058,0.058,0,-0.0985,-0.0962,-0.0949,-0.0893,-0.0881,-0.0863,-0.0792,-0.076,-0.0658,-0.0579,-0.0545,-0.0357,-0.0171,0.0014,0.0246,0.0367,0.0539,0.0607,0.0538,0.0564,0.0649,0.0646,0.0698,0.07,0.0701,0.0702,0.0703,0,-0.1005,-0.1009,-0.0984,-0.0992,-0.0971,-0.0938,-0.0926,-0.0821,-0.0782,-0.0602,-0.0573,-0.0377,-0.0216,0.0099,0.0336,0.0557,0.0577,0.0642,0.0672,0.0637,0.0664,0.0659,0.0655,0.0639,0.0639,0.0639,0.064,0,-0.1039,-0.1042,-0.1036,-0.1063,-0.1064,-0.1048,-0.101,-0.099,-0.0857,-0.0777,-0.0621,-0.0477,-0.0135,0.0135,0.0426,0.0552,0.0601,0.0655,0.0646,0.0623,0.0587,0.0612,0.0608,0.0642,0.0642,0.0641,0.0641,0.0641,-0.1074,-0.1093,-0.1109,-0.1126,-0.1141,-0.1149,-0.113,-0.1083,-0.1017,-0.0856,-0.0705,-0.0467,-0.0151,0.027,0.049,0.0673,0.0679,0.0714,0.0711,0.0708,0.0706,0.0675,0.0743,0.0744,0.0744,0.0744,0.0745,0,-0.1116,-0.1139,-0.1171,-0.1193,-0.1224,-0.1209,-0.1181,-0.1136,-0.1072,-0.0892,-0.0729,-0.0404,-0.0077,0.0238,0.0557,0.0753,0.0733,0.0752,0.07,0.0697,0.0694,0.069,0.0724,0.0724,0.0725,0.0725,0,0,-0.1143,-0.1186,-0.1201,-0.1258,-0.1279,-0.1286,-0.1269,-0.1191,-0.1051,-0.0876,-0.0693,-0.0443,-0.0037,0.0174,0.0428,0.0596,0.0586,0.059,0.0586,0.0492,0.0487,0.0651,0.0639,0,0,0,0,0]}],[{"header":{"parameterUnit":"m.s-1","parameterCategory":2,"la1":30.2991,"la2":30.254,"lo1":-89.0895,"lo2":-89.0444,"dy":0.0017,"dx":0.0017,"nx":28,"ny":28,"refTime":"2024-07-03T09:00:00:Z","depth":"4","parameterNumber":2,"parameterNumberName":"U-component_of_CURRENTS"},"data":[0,0,0,0,0,0,0,0,0,0,0,0,0,0,0,0,0,0,0,0,0,0,0,0,0,0,0,0,0,0,0,0,0,0,0,0,0,0,0,0,0,0,0,0,0,0,0,0,0,0,0,0,0,0,0,0,0,0,-0.1431,-0.1432,0,-0.1477,-0.1478,-0.1478,-0.1505,-0.1506,-0.1506,-0.1506,-0.1581,-0.1582,-0.1584,0,0,0,0,0,0,0,0,0,0,0,0,0,-0.1386,-0.1386,-0.1431,-0.1432,-0.1433,-0.1477,-0.1478,-0.1478,-0.1505,-0.1506,-0.1506,-0.1506,-0.158,-0.1582,-0.1584,0,0,0,0,0,0,0,0,0,0,0,0,0,-0.1414,-0.1387,-0.1431,-0.1453,-0.1456,-0.1477,-0.1478,-0.1478,-0.1505,-0.1506,-0.1506,-0.1507,-0.1579,-0.1582,-0.1584,-0.159,0,0,-0.1592,-0.1593,0,0,0,0,0,0,0,0,-0.1412,-0.1415,-0.1449,-0.1452,-0.1455,-0.1488,-0.1489,-0.1518,-0.1505,-0.1484,-0.1506,-0.1507,-0.1553,-0.1558,-0.1562,-0.1593,-0.1597,-0.1592,-0.1594,-0.1595,-0.1595,0,0,0,0,0,0,0,-0.141,-0.1414,-0.1447,-0.145,-0.1454,-0.1468,-0.1472,-0.1495,-0.1514,-0.1486,-0.1489,-0.1497,-0.1555,-0.1559,-0.1564,-0.1598,-0.1592,-0.1594,-0.1596,-0.1597,-0.1729,-0.1731,0,0,0,0,0,0,-0.1408,-0.1412,-0.1446,-0.1449,-0.1437,-0.1468,-0.1473,-0.1475,-0.1513,-0.152,-0.1497,-0.1498,-0.1555,-0.1561,-0.1567,-0.1631,-0.1595,-0.1597,-0.1599,-0.1727,-0.1729,-0.1731,0,0,0,0,0,0,-0.1406,-0.141,-0.1444,-0.1434,-0.1439,-0.1469,-0.1471,-0.1476,-0.1507,-0.1522,-0.1529,-0.1526,-0.1556,-0.1563,-0.1579,-0.1632,-0.1598,-0.1601,-0.1724,-0.1727,-0.173,-0.1724,0,0,0,0,0,0,-0.1405,-0.1409,-0.1426,-0.1433,-0.144,-0.1477,-0.1471,-0.1476,-0.1511,-0.1514,-0.1549,-0.1555,-0.1556,-0.1575,-0.1581,-0.1635,-0.1602,-0.1722,-0.1726,-0.1729,-0.1721,-0.1726,-0.173,0,0,0,0,0,-0.1403,-0.1419,-0.1426,-0.1432,-0.1456,-0.1478,-0.1483,-0.1504,-0.1512,-0.1533,-0.1531,-0.1555,-0.1606,-0.1576,-0.1584,-0.164,-0.172,-0.1725,-0.1729,-0.1719,-0.1725,-0.173,0,0,0,0,0,0,-0.1415,-0.1424,-0.1432,-0.1452,-0.1475,-0.1484,-0.1509,-0.152,-0.1536,-0.1546,-0.155,-0.1555,-0.1591,-0.1618,-0.1586,-0.1694,-0.1681,-0.1687,-0.1672,-0.1677,-0.1682,-0.164,-0.1605,0,0,0,0,0,-0.1424,-0.1428,-0.145,-0.1464,-0.1483,-0.1501,-0.1519,-0.1535,-0.1544,-0.1554,-0.1571,-0.1599,-0.1614,-0.1644,-0.1659,-0.171,-0.1703,-0.1764,-0.1768,-0.1771,-0.1746,-0.176,-0.1761,-0.1746,-0.1746,-0.1746,0,0,-0.1429,-0.1436,-0.1439,-0.1467,-0.1486,-0.151,-0.1514,-0.1551,-0.1568,-0.156,-0.1592,-0.1602,-0.1624,-0.1664,-0.1691,-0.1698,-0.1779,-0.1777,-0.1779,-0.1752,-0.1764,-0.1765,-0.1766,-0.1749,-0.1749,-0.1748,0,0,-0.1441,-0.1455,-0.1472,-0.149,-0.1529,-0.1538,-0.1555,-0.1586,-0.1604,-0.163,-0.1623,-0.1628,-0.17,-0.1688,-0.1699,-0.174,-0.1783,-0.1814,-0.182,-0.1835,-0.1835,-0.1834,-0.1842,-0.1842,-0.1838,-0.1838,-0.1838,0,-0.1456,-0.1469,-0.1483,-0.1508,-0.152,-0.1552,-0.1576,-0.1598,-0.1626,-0.1628,-0.165,-0.168,-0.169,-0.1697,-0.1718,-0.1742,-0.1778,-0.1791,-0.1835,-0.1835,-0.1835,-0.1842,-0.1842,-0.1838,-0.1838,-0.1838,-0.1838,0,-0.1476,-0.1497,-0.1511,-0.1538,-0.1557,-0.1584,-0.1611,-0.164,-0.1667,-0.1674,-0.1696,-0.1691,-0.1707,-0.1741,-0.1741,-0.177,-0.1805,-0.1817,-0.1808,-0.1835,-0.1843,-0.1843,-0.1839,-0.1839,-0.1839,-0.1839,0,0,-0.147,-0.1517,-0.1523,-0.1546,-0.1574,-0.1596,-0.1618,-0.1638,-0.1668,-0.1689,-0.1709,-0.1704,-0.171,-0.1721,-0.174,-0.1758,-0.1779,-0.1813,-0.1814,-0.1795,-0.184,-0.1711,-0.1699,-0.1834,-0.1834,-0.1834,-0.1849,0,-0.1484,-0.153,-0.1541,-0.1581,-0.1605,-0.1623,-0.1646,-0.1666,-0.1694,-0.1729,-0.1707,-0.174,-0.171,-0.1749,-0.1746,-0.1779,-0.1781,-0.1773,-0.1838,-0.1838,-0.1699,-0.1694,-0.1833,-0.185,-0.185,-0.185,-0.185,0,-0.1493,-0.152,-0.1558,-0.1606,-0.1623,-0.1654,-0.169,-0.1719,-0.1745,-0.1771,-0.1764,-0.1777,-0.1765,-0.177,-0.1767,-0.1791,-0.1803,-0.1816,-0.1818,-0.1688,-0.1708,-0.1818,-0.185,-0.185,-0.185,-0.185,-0.185,0,-0.1464,-0.1529,-0.1557,-0.157,-0.163,-0.1657,-0.1696,-0.1728,-0.1756,-0.1804,-0.1836,-0.1819,-0.1843,-0.1836,-0.1818,-0.1837,-0.1835,-0.1858,-0.1731,-0.1724,-0.1838,-0.1837,-0.1839,-0.1839,-0.1839,-0.1839,-0.1839,0,-0.1439,-0.1471,-0.1565,-0.1575,-0.1631,-0.1676,-0.1732,-0.1769,-0.1823,-0.1836,-0.1864,-0.1864,-0.1876,-0.1865,-0.1845,-0.1764,-0.184,-0.1701,-0.1705,-0.1841,-0.1841,-0.1838,-0.1838,-0.1839,-0.1839,-0.1839,-0.1839,0,-0.1377,-0.1435,-0.1487,-0.1579,-0.1613,-0.1657,-0.1749,-0.1779,-0.1855,-0.1878,-0.1895,-0.1922,-0.1892,-0.1869,-0.1866,-0.1785,-0.1736,-0.1691,-0.1824,-0.1842,-0.1617,-0.1617,-0.1555,-0.1551,-0.1547,-0.1543,-0.154,0,-0.1338,-0.136,-0.1479,-0.1505,-0.1549,-0.1627,-0.166,-0.1767,-0.1782,-0.1871,-0.1855,-0.1883,-0.1865,-0.1735,-0.174,-0.1664,-0.1637,-0.1616,-0.1598,-0.157,-0.1582,-0.1589,-0.1594,-0.1534,-0.1533,-0.1532,-0.1531,0,-0.1256,-0.1319,-0.1355,-0.1418,-0.1474,-0.1525,-0.1588,-0.1605,-0.1696,-0.1799,-0.1757,-0.1726,-0.1689,-0.1636,-0.1586,-0.1533,-0.1631,-0.1574,-0.1582,-0.1565,-0.1544,-0.1562,-0.1571,-0.1517,-0.1519,-0.152,-0.1521,0,-0.1191,-0.1206,-0.1261,-0.1302,-0.1364,-0.1374,-0.1445,-0.1457,-0.1503,-0.1613,-0.1592,-0.1609,-0.1665,-0.1568,-0.1517,-0.145,-0.1428,-0.1387,-0.1405,-0.142,-0.1361,-0.1314,-0.1195,0,0,0,0,0,-0.1112,-0.1102,-0.1129,-0.1161,-0.1216,-0.1247,-0.1349,-0.1418,-0.1536,-0.1459,-0.1523,-0.1469,-0.1405,-0.1422,-0.1318,-0.1444,-0.1429,-0.132,-0.1391,-0.144,-0.1456,-0.1395,0,0,0,0,0,0,-0.1048,-0.107,-0.1079,-0.102,-0.1007,-0.105,-0.1112,-0.1203,-0.1174,-0.13,-0.1264,-0.1362,-0.131,-0.1411,-0.1273,-0.1276,-0.129,-0.1346,-0.1342,-0.1431,-0.1446,-0.1459,-0.1401,0,0,0,0,0]},{"header":{"parameterUnit":"m.s-1","parameterCategory":2,"la1":30.2991,"la2":30.254,"lo1":-89.0895,"lo2":-89.0444,"dy":0.0017,"dx":0.0017,"nx":28,"ny":28,"refTime":"2024-07-03T09:00:00:Z","depth":"4","parameterNumber":3,"parameterNumberName":"V-component_of_CURRENTS"},"data":[0,0,0,0,0,0,0,0,0,0,0,0,0,0,0,0,0,0,0,0,0,0,0,0,0,0,0,0,0,0,0,0,0,0,0,0,0,0,0,0,0,0,0,0,0,0,0,0,0,0,0,0,0,0,0,0,0,0,-0.0427,-0.0427,0,-0.0419,-0.0419,-0.0419,-0.04,-0.04,-0.04,-0.04,-0.0359,-0.0358,-0.0357,0,0,0,0,0,0,0,0,0,0,0,0,0,-0.0426,-0.0426,-0.0427,-0.0427,-0.0427,-0.042,-0.0419,-0.0419,-0.04,-0.04,-0.04,-0.04,-0.0359,-0.0358,-0.0357,0,0,0,0,0,0,0,0,0,0,0,0,0,-0.042,-0.0426,-0.0427,-0.0419,-0.0419,-0.042,-0.0419,-0.0419,-0.04,-0.04,-0.04,-0.04,-0.036,-0.0358,-0.0357,-0.0351,0,0,-0.0352,-0.0352,0,0,0,0,0,0,0,0,-0.0421,-0.042,-0.042,-0.042,-0.0419,-0.0413,-0.0404,-0.0395,-0.04,-0.0404,-0.04,-0.04,-0.0376,-0.0373,-0.0368,-0.0349,-0.0347,-0.0352,-0.0351,-0.0351,-0.035,0,0,0,0,0,0,0,-0.0421,-0.042,-0.0421,-0.042,-0.042,-0.0417,-0.0416,-0.0402,-0.0388,-0.0404,-0.0403,-0.0407,-0.0375,-0.037,-0.0367,-0.0347,-0.0352,-0.0351,-0.035,-0.0349,-0.0314,-0.0314,0,0,0,0,0,0,-0.0428,-0.0421,-0.0421,-0.0421,-0.0423,-0.0417,-0.0416,-0.0413,-0.0389,-0.0386,-0.0407,-0.0406,-0.0373,-0.0369,-0.0366,-0.0384,-0.0351,-0.0349,-0.0348,-0.0314,-0.0314,-0.0314,0,0,0,0,0,0,-0.0428,-0.0428,-0.0421,-0.0423,-0.0423,-0.0418,-0.0415,-0.0413,-0.0417,-0.0393,-0.0389,-0.0415,-0.0372,-0.0368,-0.0391,-0.0381,-0.0348,-0.0347,-0.0315,-0.0314,-0.0314,-0.0404,0,0,0,0,0,0,-0.0428,-0.0428,-0.0435,-0.0424,-0.0423,-0.0433,-0.0415,-0.0413,-0.042,-0.0419,-0.0397,-0.0393,-0.0372,-0.0394,-0.039,-0.0379,-0.0346,-0.0315,-0.0315,-0.0314,-0.0401,-0.0407,-0.0412,0,0,0,0,0,-0.0428,-0.0438,-0.0436,-0.0436,-0.0431,-0.0435,-0.0434,-0.0428,-0.0421,-0.0429,-0.0434,-0.0394,-0.0388,-0.0395,-0.0389,-0.0377,-0.0315,-0.0315,-0.0314,-0.0399,-0.0406,-0.0412,0,0,0,0,0,0,-0.0445,-0.0437,-0.0434,-0.0443,-0.0445,-0.0433,-0.044,-0.0436,-0.0444,-0.0444,-0.0422,-0.0419,-0.043,-0.0393,-0.0401,-0.0362,-0.0332,-0.0331,-0.0397,-0.0404,-0.0409,-0.0404,-0.0345,0,0,0,0,0,-0.0453,-0.0459,-0.0451,-0.0463,-0.046,-0.0452,-0.0456,-0.045,-0.0453,-0.0455,-0.0441,-0.0422,-0.0422,-0.041,-0.04,-0.0391,-0.0331,-0.0368,-0.0374,-0.0379,-0.0369,-0.0313,-0.0313,-0.0314,-0.0314,-0.0314,0,0,-0.0467,-0.0463,-0.0469,-0.0468,-0.0464,-0.0467,-0.0453,-0.0459,-0.0468,-0.0449,-0.0459,-0.0454,-0.043,-0.043,-0.0425,-0.0399,-0.0341,-0.0379,-0.0384,-0.037,-0.0313,-0.0313,-0.0313,-0.0314,-0.0314,-0.0314,0,0,-0.0494,-0.0488,-0.05,-0.05,-0.0499,-0.0489,-0.0495,-0.0484,-0.0485,-0.0501,-0.0492,-0.0505,-0.0473,-0.047,-0.0462,-0.0489,-0.0386,-0.045,-0.0461,-0.0409,-0.0408,-0.0407,-0.0309,-0.0299,-0.0436,-0.0436,-0.0437,0,-0.0512,-0.0519,-0.0507,-0.0515,-0.0516,-0.0501,-0.0509,-0.0511,-0.0513,-0.0512,-0.051,-0.0492,-0.0496,-0.0497,-0.0511,-0.0504,-0.0425,-0.0448,-0.0417,-0.0415,-0.0412,-0.0312,-0.03,-0.0441,-0.044,-0.044,-0.0439,0,-0.0541,-0.0548,-0.0554,-0.0553,-0.0555,-0.056,-0.0553,-0.0554,-0.0547,-0.054,-0.0543,-0.0554,-0.0531,-0.0534,-0.0539,-0.0512,-0.0445,-0.0448,-0.0406,-0.0418,-0.0311,-0.0296,-0.0447,-0.0445,-0.0444,-0.0443,0,0,-0.0573,-0.0573,-0.0578,-0.0576,-0.0571,-0.057,-0.0582,-0.0578,-0.0568,-0.0572,-0.0552,-0.0592,-0.057,-0.0559,-0.0552,-0.0519,-0.0461,-0.0468,-0.0463,-0.0379,-0.0283,-0.0283,-0.0266,-0.0442,-0.0441,-0.044,-0.0208,0,-0.0598,-0.0618,-0.061,-0.0623,-0.0623,-0.0606,-0.0611,-0.0606,-0.0591,-0.0565,-0.0569,-0.0554,-0.0583,-0.0564,-0.0544,-0.0483,-0.0427,-0.052,-0.0275,-0.0267,-0.0275,-0.0252,-0.0435,-0.0197,-0.0193,-0.0191,-0.0189,0,-0.0629,-0.0633,-0.0653,-0.0638,-0.0635,-0.0642,-0.0619,-0.0619,-0.0587,-0.057,-0.0549,-0.0523,-0.0499,-0.0513,-0.0402,-0.0443,-0.0365,-0.0316,-0.0305,-0.0264,-0.0241,-0.0184,-0.0161,-0.0163,-0.0165,-0.0167,-0.0169,0,-0.0653,-0.066,-0.0674,-0.0674,-0.0659,-0.0662,-0.065,-0.0627,-0.0615,-0.0559,-0.0523,-0.0479,-0.0439,-0.0359,-0.0286,-0.0313,-0.0128,-0.0152,-0.0068,-0.0064,-0.0094,-0.0098,-0.0051,-0.0051,-0.0052,-0.0052,-0.0053,0,-0.0672,-0.0684,-0.0689,-0.0694,-0.0703,-0.0679,-0.0673,-0.0651,-0.0604,-0.0581,-0.0523,-0.048,-0.0396,-0.0294,-0.0228,-0.0095,-0.0075,-0.0051,-0.0011,-0.0133,-0.0144,-0.0082,-0.0088,-0.0044,-0.0046,-0.0047,-0.0049,0,-0.0697,-0.0701,-0.0719,-0.0716,-0.0719,-0.0725,-0.0702,-0.0693,-0.063,-0.0587,-0.0563,-0.0449,-0.0313,-0.0209,-0.0052,-0.0015,0.0104,0.015,0.006,0.0088,0.0133,0.0119,0.0288,0.029,0.0292,0.0293,0.0294,0,-0.0708,-0.0723,-0.075,-0.0772,-0.0777,-0.0779,-0.0787,-0.073,-0.0712,-0.0583,-0.0563,-0.0399,-0.0327,-0.0073,0.0021,0.0209,0.0197,0.0289,0.0153,0.0143,0.0165,0.0149,0.0133,0.0296,0.0297,0.0297,0.0298,0,-0.0728,-0.0752,-0.0769,-0.082,-0.0845,-0.0852,-0.0848,-0.0826,-0.0747,-0.0688,-0.0546,-0.0401,-0.0226,-0.0068,0.0097,0.0201,0.0236,0.0305,0.0301,0.0174,0.0155,0.0171,0.0155,0.0303,0.0302,0.0301,0.0301,0,-0.0754,-0.0782,-0.0823,-0.0857,-0.0901,-0.0914,-0.0896,-0.0846,-0.0796,-0.0649,-0.0603,-0.0402,-0.0278,-0.0066,0.0067,0.0192,0.0194,0.0199,0.02,0.0196,0.0062,0.0018,0.0177,0,0,0,0,0,-0.0774,-0.0809,-0.0854,-0.0891,-0.0936,-0.0952,-0.0937,-0.0905,-0.0823,-0.0737,-0.0661,-0.0502,-0.0251,-0.0128,-0.0003,0.0063,0.0197,0.0211,0.0197,0.0332,0.0326,0.0178,0,0,0,0,0,0,-0.0792,-0.0844,-0.0859,-0.0914,-0.0946,-0.0981,-0.0972,-0.0915,-0.0846,-0.0747,-0.0612,-0.05,-0.0261,-0.0335,-0.0012,0.0033,0.0035,0.0341,0.0344,0.0335,0.033,0.0325,0.0171,0,0,0,0,0]}]]